Precipitable_Water
0.60 0.60 0.59 0.61 0.63 0.65 0.64 0.63 0.56 0.45 0.48 0.62 0.68 0.79 0.79 0.82 0.89 0.94 0.97 0.96 0.98 0.99 1.06 1.11 1.15 1.15 1.13 1.11 1.09 1.08 1.08 1.05 0.99 0.93 0.87 0.80 0.76 0.73
0.57 0.57 0.57 0.59 0.60 0.62 0.62 0.62 0.64 0.58 0.50 0.63 0.72 0.76 0.77 0.79 0.79 0.79 0.86 0.88 0.89 0.96 0.92 0.93 0.93 0.94 0.94 0.92 0.90 0.89 0.84 0.82 0.79 0.75 0.70 0.68 0.68 0.67
0.50 0.52 0.53 0.56 0.55 0.56 0.58 0.58 0.58 0.60 0.53 0.61 0.71 0.74 0.74 0.72 0.73 0.73 0.72 0.74 0.76 0.77 0.79 0.80 0.78 0.77 0.79 0.78 0.76 0.73 0.70 0.69 0.67 0.66 0.67 0.67 0.67 0.67
0.41 0.46 0.48 0.52 0.51 0.53 0.54 0.52 0.53 0.56 0.53 0.49 0.61 0.68 0.67 0.70 0.70 0.66 0.65 0.66 0.64 0.64 0.65 0.67 0.68 0.68 0.67 0.66 0.66 0.64 0.63 0.62 0.60 0.59 0.59 0.60 0.59 0.61
0.38 0.39 0.41 0.44 0.43 0.46 0.48 0.48 0.50 0.52 0.53 0.50 0.50 0.59 0.64 0.67 0.64 0.66 0.64 0.64 0.63 0.67 0.69 0.69 0.69 0.67 0.66 0.65 0.63 0.60 0.58 0.58 0.58 0.59 0.61 0.62 0.62 0.58
0.37 0.39 0.40 0.40 0.40 0.39 0.40 0.42 0.45 0.46 0.49 0.49 0.48 0.50 0.54 0.63 0.64 0.57 0.49 0.52 0.50 0.54 0.58 0.59 0.65 0.67 0.69 0.65 0.62 0.61 0.60 0.54 0.47 0.43 0.42 0.38 0.34 0.34
0.33 0.34 0.36 0.39 0.40 0.41 0.38 0.38 0.39 0.40 0.41 0.42 0.41 0.42 0.43 0.44 0.46 0.51 0.48 0.50 0.48 0.47 0.48 0.50 0.50 0.49 0.49 0.47 0.43 0.40 0.38 0.37 0.35 0.33 0.34 0.33 0.32 0.32
0.29 0.30 0.30 0.33 0.36 0.38 0.39 0.41 0.41 0.36 0.35 0.35 0.35 0.34 0.34 0.37 0.43 0.44 0.43 0.42 0.37 0.45 0.42 0.37 0.39 0.33 0.34 0.36 0.37 0.37 0.36 0.33 0.32 0.32 0.32 0.32 0.31 0.31
0.30 0.29 0.28 0.29 0.30 0.34 0.37 0.38 0.39 0.39 0.39 0.36 0.31 0.31 0.31 0.34 0.38 0.38 0.37 0.37 0.36 0.38 0.32 0.26 0.32 0.30 0.35 0.35 0.35 0.35 0.34 0.32 0.32 0.30 0.30 0.30 0.30 0.30
0.31 0.31 0.30 0.30 0.30 0.30 0.32 0.33 0.33 0.34 0.38 0.37 0.35 0.35 0.36 0.37 0.37 0.37 0.34 0.33 0.33 0.32 0.33 0.25 0.29 0.28 0.31 0.32 0.35 0.36 0.34 0.32 0.31 0.30 0.30 0.29 0.30 0.30
0.33 0.33 0.33 0.32 0.32 0.32 0.32 0.30 0.30 0.30 0.36 0.37 0.37 0.37 0.37 0.35 0.35 0.33 0.29 0.27 0.25 0.28 0.33 0.30 0.29 0.28 0.29 0.31 0.37 0.37 0.35 0.32 0.32 0.33 0.32 0.33 0.33 0.34
0.34 0.35 0.36 0.35 0.35 0.35 0.33 0.31 0.29 0.29 0.31 0.33 0.32 0.36 0.38 0.37 0.37 0.33 0.30 0.25 0.25 0.26 0.33 0.32 0.31 0.30 0.26 0.32 0.35 0.37 0.37 0.35 0.34 0.35 0.34 0.34 0.34 0.34
0.35 0.35 0.37 0.38 0.38 0.38 0.38 0.35 0.32 0.35 0.35 0.35 0.33 0.34 0.37 0.38 0.39 0.38 0.36 0.32 0.28 0.27 0.33 0.34 0.33 0.33 0.30 0.29 0.31 0.35 0.35 0.33 0.34 0.36 0.36 0.35 0.35 0.34
0.35 0.37 0.38 0.40 0.40 0.39 0.40 0.40 0.41 0.41 0.40 0.38 0.36 0.36 0.38 0.40 0.41 0.41 0.39 0.37 0.36 0.33 0.35 0.36 0.33 0.32 0.32 0.32 0.31 0.33 0.33 0.34 0.36 0.37 0.37 0.37 0.35 0.35
0.44 0.44 0.44 0.44 0.44 0.43 0.42 0.43 0.46 0.46 0.44 0.42 0.42 0.43 0.45 0.46 0.48 0.46 0.44 0.42 0.41 0.39 0.40 0.41 0.39 0.38 0.37 0.35 0.34 0.35 0.35 0.36 0.38 0.37 0.37 0.35 0.34 0.34
0.49 0.49 0.50 0.51 0.52 0.52 0.52 0.53 0.54 0.52 0.50 0.48 0.48 0.50 0.50 0.47 0.44 0.44 0.41 0.41 0.40 0.39 0.42 0.45 0.44 0.43 0.39 0.39 0.38 0.35 0.36 0.33 0.36 0.36 0.37 0.35 0.34 0.34
0.51 0.50 0.50 0.50 0.49 0.50 0.51 0.51 0.52 0.51 0.50 0.50 0.49 0.49 0.49 0.47 0.45 0.45 0.43 0.42 0.39 0.39 0.40 0.43 0.46 0.46 0.44 0.42 0.37 0.37 0.36 0.36 0.37 0.37 0.35 0.33 0.32 0.33
0.50 0.46 0.45 0.45 0.45 0.45 0.45 0.46 0.49 0.50 0.52 0.53 0.52 0.51 0.49 0.49 0.48 0.48 0.48 0.45 0.43 0.43 0.42 0.43 0.44 0.43 0.43 0.43 0.42 0.38 0.37 0.36 0.36 0.35 0.34 0.31 0.29 0.30
0.49 0.48 0.47 0.48 0.48 0.49 0.50 0.50 0.50 0.52 0.54 0.52 0.51 0.51 0.51 0.49 0.48 0.47 0.47 0.46 0.45 0.45 0.44 0.44 0.43 0.41 0.37 0.35 0.38 0.43 0.37 0.36 0.35 0.33 0.33 0.31 0.28 0.28
0.50 0.49 0.48 0.49 0.49 0.48 0.48 0.48 0.49 0.51 0.52 0.52 0.51 0.52 0.51 0.50 0.49 0.48 0.47 0.46 0.46 0.46 0.45 0.45 0.43 0.41 0.38 0.37 0.36 0.39 0.41 0.36 0.34 0.32 0.31 0.30 0.30 0.30
0.49 0.49 0.50 0.50 0.49 0.49 0.49 0.49 0.49 0.49 0.49 0.49 0.49 0.51 0.52 0.52 0.50 0.50 0.50 0.50 0.48 0.48 0.45 0.44 0.44 0.45 0.43 0.42 0.38 0.37 0.38 0.38 0.37 0.34 0.31 0.28 0.26 0.26
0.43 0.43 0.43 0.43 0.44 0.45 0.46 0.46 0.46 0.46 0.46 0.48 0.49 0.50 0.52 0.53 0.51 0.50 0.50 0.49 0.48 0.48 0.47 0.47 0.46 0.45 0.41 0.39 0.36 0.35 0.34 0.35 0.36 0.35 0.33 0.31 0.27 0.23
0.40 0.40 0.38 0.37 0.38 0.39 0.40 0.41 0.42 0.42 0.43 0.44 0.46 0.48 0.50 0.48 0.50 0.50 0.49 0.48 0.47 0.46 0.45 0.43 0.42 0.42 0.40 0.38 0.36 0.34 0.33 0.32 0.31 0.30 0.29 0.31 0.32 0.31
Wind_Speed
13 14 14 14 15 15 16 17 17 18 20 19 18 18 17 16 14 11 7 6 5 6 8 8 11 17 20 21 20 21 22 21 21 21 22 24 25 26
14 15 15 15 15 16 17 17 18 18 18 19 17 16 16 15 14 11 8 7 7 8 10 11 13 15 19 21 22 22 23 23 24 24 25 25 25 26
14 15 15 15 16 16 17 18 18 18 19 19 17 16 15 15 14 12 10 9 8 7 9 12 14 15 17 19 21 22 22 22 23 24 25 25 26 26
15 15 16 16 17 17 17 18 18 19 19 19 18 17 16 15 14 13 11 10 9 9 9 10 11 13 15 17 18 19 20 21 23 24 24 25 25 25
16 16 17 17 17 17 18 19 19 19 19 19 19 18 17 16 14 13 12 11 10 9 9 9 11 12 14 15 17 18 19 20 22 23 23 23 23 24
18 18 19 19 19 19 19 20 20 20 20 20 20 19 18 16 15 15 14 13 13 12 11 11 11 11 12 13 14 15 16 17 17 17 18 18 19 20
21 21 21 21 21 21 21 21 21 21 20 20 20 19 18 17 16 16 16 15 15 15 15 14 14 14 15 15 16 17 17 18 18 19 20 21 22 23
24 24 23 23 23 23 23 23 23 22 22 21 21 21 20 19 18 18 17 17 16 16 16 16 17 18 18 18 19 20 20 20 21 22 22 24 25 26
27 26 26 26 26 26 25 25 25 25 24 24 23 23 22 21 20 20 19 19 19 18 18 18 18 19 20 21 22 22 22 23 23 24 25 26 27 28
30 29 29 29 29 28 28 28 28 27 26 26 25 25 24 23 22 21 21 21 21 21 20 20 20 21 21 22 22 23 23 24 25 26 27 28 29 30
32 32 32 32 32 31 31 30 30 30 28 28 27 27 26 25 24 23 23 22 22 22 22 22 22 23 23 23 23 23 24 25 26 27 28 29 30 31
35 35 36 36 35 35 34 33 32 32 30 29 29 28 28 27 26 25 25 24 24 23 23 23 23 23 23 24 25 25 26 27 27 28 29 30 31 32
37 37 38 38 38 37 36 35 35 33 32 31 31 30 29 29 28 28 27 26 26 26 25 25 24 25 25 25 26 27 28 28 29 30 30 31 31 32
38 38 39 39 39 38 38 37 36 35 33 33 32 32 31 31 30 30 30 29 28 28 27 27 26 27 27 27 28 28 29 30 31 31 31 32 32 33
39 39 40 40 39 39 39 38 37 35 34 33 33 33 32 32 31 31 30 30 30 30 30 29 29 29 29 29 29 30 31 31 32 31 31 33 33 34
38 38 39 39 39 39 38 38 37 36 36 35 35 35 34 33 33 33 32 32 31 31 32 31 31 31 31 31 31 31 32 31 31 32 33 34 35 35
37 36 37 37 37 37 38 38 38 38 37 37 37 37 37 36 35 35 34 34 33 33 33 33 33 33 33 33 33 33 33 33 32 32 32 33 35 35
37 37 37 37 37 38 38 38 38 39 40 40 40 39 39 38 38 37 36 36 36 35 35 34 34 33 33 34 35 34 33 33 32 32 32 32 33 33
38 38 38 38 38 39 39 39 40 40 41 41 42 41 41 41 40 40 39 39 38 38 37 35 34 34 34 33 33 34 32 31 30 31 31 31 31 32
39 39 39 39 39 40 40 41 42 42 43 44 44 44 43 43 42 41 41 40 39 38 37 36 35 35 33 32 31 30 31 30 30 30 30 30 30 31
40 40 41 41 41 41 41 41 42 42 43 43 43 43 43 42 42 41 41 41 39 38 37 36 35 34 32 31 30 30 29 30 30 29 29 29 29 28
38 39 39 39 39 40 40 40 40 40 40 40 39 39 39 39 39 38 38 37 37 36 35 33 32 32 31 31 30 29 29 29 29 29 30 29 27 26
38 37 37 37 37 37 37 37 36 36 35 35 35 35 35 35 35 34 34 33 33 33 32 31 31 31 31 30 30 29 29 28 28 27 27 27 27 28
Wind_Direction
307 309 308 308 312 318 322 328 329 332 334 340 341 346 352 357 358 358 349 322 303 258 237 233 231 232 235 240 248 251 253 258 263 264 265 267 268 269
305 309 309 307 309 313 317 321 327 329 331 336 337 338 345 350 351 348 338 326 317 279 251 250 249 247 244 246 249 254 258 261 264 265 266 268 270 271
305 306 307 306 307 309 313 316 319 323 325 331 333 331 332 336 342 345 336 319 314 305 270 258 256 254 249 247 251 255 259 263 265 267 267 269 270 272
306 307 308 308 307 308 309 311 313 316 319 322 325 325 323 324 324 328 332 330 313 299 285 273 261 256 252 250 254 258 261 265 267 268 269 270 271 272
301 304 307 307 307 307 307 308 309 311 313 315 317 318 317 316 314 314 314 314 313 309 298 280 270 263 257 256 258 261 263 267 269 269 269 270 272 272
295 298 301 303 304 307 307 307 308 308 309 310 312 313 312 312 309 308 306 305 303 300 293 287 278 272 264 262 262 263 266 267 268 268 268 269 271 272
290 293 296 298 300 301 303 305 305 305 305 307 309 310 310 308 306 305 302 301 298 295 290 284 276 270 267 267 266 267 268 269 269 269 270 271 273 274
286 289 292 294 296 297 298 298 299 301 301 301 303 303 304 303 301 299 298 297 296 294 290 282 278 272 270 268 269 269 269 270 271 271 272 274 275 276
282 285 287 290 292 294 295 295 295 294 295 296 297 297 299 299 298 296 294 293 291 290 289 285 279 274 271 270 270 269 269 271 271 272 275 276 277 278
280 281 284 287 288 290 292 292 293 292 291 291 292 293 293 293 293 293 293 291 289 287 286 284 281 276 274 272 270 270 271 272 274 275 277 278 279 279
278 280 281 283 285 286 288 289 290 289 289 288 289 289 289 288 288 289 289 289 288 286 284 283 281 278 275 272 271 270 271 273 276 277 280 281 281 281
278 279 279 281 282 283 284 285 286 286 287 286 286 286 285 284 285 286 286 286 286 287 285 283 281 280 276 273 271 271 272 275 277 279 282 283 284 283
277 278 279 279 280 281 281 281 282 284 284 283 284 283 282 282 282 283 283 283 283 283 283 283 283 280 277 276 274 273 274 276 279 280 282 284 284 285
277 277 278 279 279 279 279 279 279 280 280 281 281 281 279 280 280 280 280 280 280 281 281 280 281 279 278 277 276 276 275 277 279 280 283 284 285 286
277 277 278 278 278 278 277 277 277 277 278 278 279 278 279 280 280 280 279 279 280 279 278 279 279 278 277 277 278 277 278 278 279 280 282 284 286 287
278 278 278 278 277 277 277 276 276 276 275 276 277 278 278 278 278 277 277 278 278 279 278 278 277 277 277 277 277 278 277 279 279 281 283 285 286 287
280 280 279 278 278 277 276 276 275 275 275 275 276 276 277 276 276 276 276 276 276 279 278 277 277 276 276 277 277 277 278 278 279 280 283 286 287 288
280 280 279 279 278 278 277 276 275 275 275 275 275 275 274 274 274 274 274 274 275 276 277 276 276 276 277 277 274 276 277 277 278 280 284 287 288 289
280 280 280 279 279 278 277 276 276 276 276 275 275 274 273 273 272 272 272 272 272 274 274 273 274 274 275 276 277 274 276 276 277 281 284 286 288 289
280 280 280 280 279 278 277 277 277 277 276 276 275 274 273 272 271 271 270 270 270 271 271 272 271 271 273 275 276 276 272 274 276 281 284 287 288 289
279 279 279 280 279 278 278 278 278 278 278 277 275 274 273 272 271 270 269 267 266 267 269 269 268 270 271 273 274 274 274 272 275 279 283 286 288 289
280 280 280 281 280 279 279 279 279 280 279 277 276 274 273 271 271 269 268 267 266 265 266 266 266 265 267 269 272 273 274 275 276 278 280 282 286 288
280 281 281 282 282 281 280 279 279 280 279 279 277 275 273 271 270 269 267 266 264 263 262 263 263 264 266 268 270 273 274 274 276 278 282 282 282 285